Thunder Bay, Ontario

3:56 AM EDT on April 22, 2018 (GMT -0400)
Thunder Bay

Weather History for CYQT - December, 2012

Change the Weather History Date:

Wednesday, December 26, 2012

  Actual Average Record
Temperature  
Mean Temperature 5 °F -  
Max Temperature 12 °F -20 °F 42 °F (2011)
Min Temperature -2 °F -34 °F -23 °F (1996)
Degree Days  
Heating Degree Days 60    
Moisture  
Dew Point -0 °F    
Average Humidity 78    
Maximum Humidity 85    
Minimum Humidity 64    
Precipitation  
Precipitation 0.00 in 0.00 in - ()
Sea Level Pressure  
Sea Level Pressure 30.45 in    
Wind  
Wind Speed 5 mph ()    
Max Wind Speed 8 mph    
Max Gust Speed -    
Visibility 14.7 miles    
Events      
Averages and records for this station are not official NWS values.
T = Trace of Precipitation, MM = Missing Value Source: Averaged Metar Reports

Daily Weather History Graph

Daily Weather History Graph

Search for Another Location

Airport or City:

Astronomy

Dec. 26, 2012 Rise Set
Actual Time 8:48 AM EST 5:08 PM EST
Civil Twilight 8:11 AM EST 5:45 PM EST
Nautical Twilight 7:31 AM EST 6:25 PM EST
Astronomical Twilight 6:53 AM EST 7:03 PM EST
Moon 4:04 PM EST (12/26) 7:09 AM EST (12/26)
Length of Visible Light 9h 33m
Length of Day
8h 20m
Waxing Gibbous, 97% of the Moon is Illuminated
Dec 26
Waxing Gibbous
Dec 28
Full
Jan 4
Last Quarter
Jan 11
New
Jan 18
First Quarter

Hourly Weather History & Observations

Time (EST) Temp. Windchill Dew Point Humidity Pressure Visibility Wind Dir Wind Speed Gust Speed Precip Events Conditions
12:00 AM 3.2 °F -10.3 °F -2.2 °F 78% 30.51 in 15.0 mi WNW 8.1 mph - N/A   Clear
1:00 AM 2 °F - -3 °F 68% 30.49 in 10 mi West 6.9 mph - -  
1:00 AM 1.4 °F -11.3 °F -4.0 °F 78% 30.49 in 15.0 mi West 6.9 mph - N/A   Clear
2:00 AM 1.4 °F -12.5 °F -4.0 °F 78% 30.48 in 15.0 mi West 8.1 mph - N/A   Clear
3:00 AM 1.4 °F -12.5 °F -4.0 °F 78% 30.49 in 15.0 mi WSW 8.1 mph - N/A   Clear
4:00 AM -0.4 °F -10.4 °F -4.0 °F 85% 30.50 in 15.0 mi WSW 4.6 mph - N/A   Clear
5:00 AM -0.4 °F -10.4 °F -5.8 °F 78% 30.51 in 15.0 mi West 4.6 mph - N/A   Clear
6:00 AM -2.2 °F -15.6 °F -5.8 °F 85% 30.49 in 15.0 mi West 6.9 mph - N/A   Clear
7:00 AM -0 °F - -5 °F 71% 30.49 in 10 mi West 4.6 mph - -   Overcast
7:00 AM -0.4 °F -10.4 °F -4.0 °F 85% 30.48 in 15.0 mi West 4.6 mph - N/A   Mostly Cloudy
8:00 AM -0.4 °F - -4.0 °F 85% 30.51 in 15.0 mi Calm Calm - N/A   Scattered Clouds
8:26 AM -0.4 °F -10.4 °F -5.8 °F 78% 30.51 in 15.0 mi West 4.6 mph - N/A   Overcast
9:00 AM -0.4 °F -12.0 °F -5.8 °F 78% 30.50 in 15.0 mi West 5.8 mph - N/A   Overcast
10:00 AM 1.4 °F -9.9 °F -4.0 °F 78% 30.50 in 15.0 mi SW 5.8 mph - N/A   Mostly Cloudy
11:00 AM 3.2 °F -6.2 °F -2.2 °F 78% 30.48 in 15.0 mi WSW 4.6 mph - N/A   Overcast
12:00 PM 5.0 °F -6.9 °F -0.4 °F 78% 30.44 in 15.0 mi SW 6.9 mph - N/A   Overcast
1:00 PM 7 °F - 1 °F 64% 30.43 in 10 mi WSW 8.1 mph - -  
1:00 PM 6.8 °F -5.9 °F 1.4 °F 79% 30.43 in 15.0 mi WSW 8.1 mph - N/A   Overcast
2:00 PM 8.6 °F -2.6 °F 3.2 °F 79% 30.40 in 15.0 mi SW 6.9 mph - N/A   Overcast
3:00 PM 10.4 °F -0.4 °F 3.2 °F 73% 30.40 in 15.0 mi SSW 6.9 mph - N/A   Overcast
4:00 PM 12.2 °F 0.7 °F 5.0 °F 73% 30.40 in 20.0 mi SW 8.1 mph - N/A   Overcast
5:00 PM 12.2 °F 4.3 °F 5.0 °F 73% 30.41 in 20.0 mi SW 4.6 mph - N/A   Overcast
6:00 PM 10.4 °F 4.0 °F 5.0 °F 79% 30.42 in 15.0 mi SSW 3.5 mph - N/A   Overcast
7:00 PM 11 °F - 6 °F 72% 30.42 in 10 mi SSW 3.5 mph - -   Overcast
7:00 PM 10.4 °F - 6.8 °F 85% 30.41 in 15.0 mi SW 2.3 mph - N/A   Overcast
8:00 PM 10.4 °F 2.2 °F 6.8 °F 85% 30.40 in 15.0 mi South 4.6 mph - N/A   Mostly Cloudy
9:00 PM 8.6 °F 2.0 °F 5.0 °F 85% 30.40 in 15.0 mi West 3.5 mph - N/A   Mostly Cloudy
10:00 PM 6.8 °F -2.0 °F 3.2 °F 85% 30.40 in 15.0 mi SW 4.6 mph - N/A   Partly Cloudy
11:00 PM 5.0 °F -4.1 °F 1.4 °F 85% 30.39 in 15.0 mi WSW 4.6 mph - N/A   Partly Cloudy